Location: Columbia
(38.9520°N, 92.3340°W)
Time: 14:58:04
(UTC-05:00)

Cosmos 1603 - Visible Passes

Search period start: 05 May 2016 00:00
Search period end: 15 May 2016 00:00
Orbit: 832 x 858 km, 71.0° (Epoch: 05 May)

Date Brightness Start Highest point End Pass type
(mag) Time Alt. Az. Time Alt. Az. Time Alt. Az.
05 May 5.9 01:11:05 16° ENE 01:11:05 16° ENE 01:12:45 10° NE visible
05 May 4.1 02:52:58 52° NW 02:52:58 52° NW 02:57:59 10° NNE visible
06 May 5.9 00:57:23 15° ENE 00:57:23 15° ENE 00:58:46 10° ENE visible
06 May 4.2 02:39:16 52° NW 02:39:16 52° NW 02:44:06 10° NNE visible
07 May 6.0 00:43:40 14° ENE 00:43:40 14° ENE 00:44:47 10° ENE visible
07 May 4.3 02:25:32 51° NNW 02:25:32 51° NNW 02:30:13 10° NNE visible
08 May 6.0 00:29:54 13° ENE 00:29:54 13° ENE 00:30:48 10° ENE visible
08 May 4.3 02:11:47 51° NNW 02:11:47 51° NNW 02:16:19 10° NNE visible
09 May 6.0 00:16:07 12° ENE 00:16:07 12° ENE 00:16:48 10° ENE visible
09 May 4.4 01:58:00 50° NNW 01:58:00 50° NNW 02:02:26 10° NNE visible
10 May 6.0 00:02:18 11° ENE 00:02:18 11° ENE 00:02:48 10° ENE visible
10 May 4.4 01:44:10 50° NNW 01:44:10 50° NNW 01:48:33 10° NNE visible
10 May 6.0 23:48:26 11° ENE 23:48:26 11° ENE 23:48:48 10° ENE visible
11 May 4.4 01:30:18 51° N 01:30:18 51° N 01:34:39 10° NNE visible
11 May 6.1 03:14:08 10° NW 03:14:17 10° NW 03:14:27 10° NW visible
11 May 6.0 23:34:32 11° ENE 23:34:32 11° ENE 23:34:47 10° ENE visible
12 May 4.4 01:16:24 51° N 01:16:24 51° N 01:20:45 10° NNE visible
12 May 6.1 02:59:27 10° NW 03:00:21 10° NW 03:01:16 10° NW visible
12 May 6.0 23:20:36 10° ENE 23:20:36 10° ENE 23:20:45 10° ENE visible
13 May 4.3 01:02:28 53° N 01:02:28 53° N 01:06:51 10° NNE visible
13 May 6.1 02:45:09 10° WNW 02:46:25 11° NW 02:47:42 10° NNW visible
13 May 6.0 23:06:37 10° ENE 23:06:37 10° ENE 23:06:42 10° ENE visible
14 May 4.2 00:48:28 55° N 00:48:28 55° N 00:52:57 10° NNE visible
14 May 6.1 02:30:56 10° WNW 02:32:29 11° NW 02:34:02 10° NNW visible
14 May 5.9 22:52:35 10° ENE 22:52:35 10° ENE 22:52:40 10° ENE visible
